STARLINK-35433, 65870

Orbit data source: Space-Track

STARLINK-35433, 65870 is a payload satellite owned by SpaceX/Seattle (US) in LEO that was launched on Fri, 03 Oct 2025 UTC via an FALCON 9 launch vehicle from the Air Force Western Test Range (AFWTR). Payload-class satellites include a variety of spacecraft equipped with specific instruments for various scientific and technological missions. These include communications satellites like Starlink; space stations such as the ISS; scientific satellites like the Hubble; Earth observation satellites from companies like Planet Labs, Umbra, and HawkEye 360; GPS; miniature CubeSats for education and research; and military/defense satellites.

Loading next visibility...
Identifier
65870, 2025-223S
Orbit
LEO
Country
Flag of USUS
Related business
Manufacturer
SpaceX/Seattle
Mission
Operational spacecraft
Bus & Motor
STARLINK V2MO, Unknown motor
Mass
575 kg wet, ~530 kg dry
Launch date (UTC)
2025-10-03 (2 weeks ago)
Launch vehicle
FALCON 9
Launch site
Air Force Western Test Range (AFWTR)
Object type
Payload
Rocket body
Debris
Shape & HBR
Unknown
Radar Cross Section
RCS unknown

Expand to show TLE details & history
Last TLE update: 9 hours ago

TLE from 9 hours ago
0 STARLINK-35433
1 65870U 25223S   25291.08015810 -.01854310  00000-0 -16712-1 0  9994
2 65870  53.1572 240.6899 0011495 156.2852 203.8699 15.70705474  2322
Epoch: 2025-10-18T01:55Z
TLE epoch observation values (Epoch: 2025-10-18T01:55:25.659Z)
Latitude
0.00001°
Longitude
-174.98331°
Altitude
364.876 km
Speed
7.688 km/s
True Right ascension
16h 02m 45s
True Declination
0° 00' 00"
Sunlit
Object was in daylight at epoch
Visualization orbit readout
Latitude
Unknown
Longitude
Unknown
Altitude
Unknown
Speed
Unknown
Apparent Right ascension
Unknown
Apparent Declination
Unknown
Sunlit
N/A
Visualization observer readout
Local Sidereal Time
05:55:48
Azimuth
Unknown
Elevation
Unknown
Doppler factor
Unknown
Orbital elements
Apogee altitude
364.883 km
Perigee altitude
349.399 km
Semi-major axis
6,735.278 km
Eccentricity
0.00115
Inclination
53.1572°
RAAN
240.6899°
Arg. of periapsis
156.2852°
True anomaly
203.81667°
Mean anomaly
203.8699°
Eccentric anomaly
203.84328°
Mean motion
3.92654 °/min
Orbital period
91.68 mins
BSTAR
-0.016712
Loading maneuver chart data...
Computing Atmospheric mass density...
Loading historical data...
Loading historical data...
Loading historical data...
Loading historical data...
Loading historical data...
Loading historical data...
Loading historical data...

Documentation

Showing up to 5 results
|